Location: Ferma
(41.9500°N, 44.5167°E)
Time: 03:58:02
(UTC+00:00)

NOSS 2-3 (D) - Pass Details

Date: 07 June 2022
Orbit: 536 x 1674 km, 63.3° (Epoch: 02 June)

Event Time Altitude Azimuth Distance (km) Brightness Sun altitude
Rises 17:13:08 0° 326° (NNW) 3,457 9.1 -6.6°
Reaches altitude 10° 17:15:23 10° 330° (NNW) 2,658 8.1 -6.9°
Maximum altitude 17:21:42 65° 52° (NE) 1,255 5.1 -7.8°
Enters shadow 17:29:57 10° 134° (SE) 3,445 6.6 -9.0°
